Weather History for KPHD - July, 2013

Change the Weather History Date:

Monday, July 8, 2013

  Actual Average Record
Temperature  
Mean Temperature 73 °F 72 °F  
Max Temperature 83 °F 83 °F 101 °F (1988)
Min Temperature 62 °F 61 °F 46 °F (1984)
Degree Days  
Heating Degree Days 0 0  
Month to date heating degree days 0 0  
Since 1 June heating degree days 22 35  
Since 1 July heating degree days 0 0  
Cooling Degree Days 8 7  
Month to date cooling degree days 72 56  
Year to date cooling degree days 315 242  
Since 1 June cooling degree days 217 199  
Growing Degree Days 22 (Base 50)    
Moisture  
Dew Point 66 °F    
Average Humidity 79    
Maximum Humidity 93    
Minimum Humidity 65    
Precipitation  
Precipitation 0.24 in 0.11 in - ()
Month to date precipitation 0.87 0.85  
Year to date precipitation 18.47 20.18  
Sea Level Pressure  
Sea Level Pressure 30.11 in    
Wind  
Wind Speed 3 mph (SSW)    
Max Wind Speed 12 mph    
Max Gust Speed 16 mph    
Visibility 8 miles    
Events Rain , Thunderstorm    
T = Trace of Precipitation, MM = Missing Value Source: NWS Daily Summary

Daily Weather History Graph

Daily Weather History Graph

Search for Another Location

Airport or City:

Trip Planner

Search our weather history database for the weather conditions in past years. The results will help you decide how hot, cold, wet, or windy it might be!

Date:

Astronomy

Jul. 08, 2013 Rise Set
Actual Time 6:03 AM EDT 8:58 PM EDT
Civil Twilight 5:30 AM EDT 9:30 PM EDT
Nautical Twilight 4:49 AM EDT 10:11 PM EDT
Astronomical Twilight 4:01 AM EDT 10:59 PM EDT
Moon 6:31 AM EDT (7/8) 8:59 PM EDT (7/8)
Length of Visible Light 16h 00m
Length of Day
14h 54m
New Moon, 0% of the Moon is Illuminated
Jul 8
New Moon
Jul 15
First Quarter
Jul 22
Full
Jul 29
Last Quarter
Aug 6
New

Hourly Weather History & Observations

Time (EDT) Temp. Heat Index Dew Point Humidity Pressure Visibility Wind Dir Wind Speed Gust Speed Precip Events Conditions
12:53 AM 66.0 °F - 60.1 °F 81% 30.10 in 10.0 mi Calm Calm - N/A   Clear
1:53 AM 64.0 °F - 61.0 °F 90% 30.10 in 10.0 mi SSE 3.5 mph - N/A   Mostly Cloudy
2:53 AM 64.0 °F - 61.0 °F 90% 30.10 in 10.0 mi Calm Calm - N/A   Partly Cloudy
3:53 AM 63.0 °F - 61.0 °F 93% 30.09 in 8.0 mi Calm Calm - N/A   Clear
4:53 AM 63.0 °F - 60.1 °F 90% 30.10 in 10.0 mi Calm Calm - N/A   Scattered Clouds
5:53 AM 62.1 °F - 60.1 °F 93% 30.12 in 10.0 mi Calm Calm - N/A   Scattered Clouds
6:53 AM 63.0 °F - 61.0 °F 93% 30.11 in 8.0 mi SE 3.5 mph - N/A   Clear
7:53 AM 66.0 °F - 62.1 °F 87% 30.12 in 10.0 mi Calm Calm - N/A   Partly Cloudy
8:53 AM 69.1 °F - 64.0 °F 84% 30.13 in 10.0 mi Calm Calm - N/A   Clear
9:53 AM 73.0 °F - 64.9 °F 76% 30.14 in 10.0 mi Calm Calm - N/A   Scattered Clouds
10:53 AM 75.0 °F - 66.0 °F 73% 30.13 in 10.0 mi WSW 3.5 mph - N/A   Partly Cloudy
11:53 AM 78.1 °F - 68.0 °F 71% 30.13 in 10.0 mi Variable 4.6 mph - N/A   Partly Cloudy
12:53 PM 80.1 °F 82.9 °F 69.1 °F 69% 30.12 in 10.0 mi Variable 3.5 mph - N/A   Partly Cloudy
1:53 PM 81.0 °F 84.1 °F 69.1 °F 67% 30.11 in 10.0 mi SSW 6.9 mph - N/A   Partly Cloudy
2:53 PM 82.0 °F 85.9 °F 70.0 °F 67% 30.09 in 10.0 mi Variable 5.8 mph - N/A   Mostly Cloudy
4:53 PM 82.9 °F 86.5 °F 69.1 °F 63% 30.07 in 10.0 mi WSW 8.1 mph - N/A   Partly Cloudy
5:53 PM 80.1 °F 82.9 °F 69.1 °F 69% 30.07 in 10.0 mi SW 6.9 mph - N/A   Partly Cloudy
7:53 PM 78.1 °F - 68.0 °F 71% 30.08 in 10.0 mi Calm Calm - N/A   Mostly Cloudy
8:53 PM 75.9 °F - 69.1 °F 79% 30.07 in 9.0 mi Calm Calm - 0.01 in Rain Light Rain
9:53 PM 72.0 °F - 68.0 °F 87% 30.10 in 10.0 mi NNW 4.6 mph - 0.00 in Rain Light Rain
10:38 PM 69.8 °F - 66.2 °F 88% 30.13 in 3.0 mi North 3.5 mph - 0.14 in Rain , Thunderstorm Rain
10:53 PM 69.1 °F - 66.9 °F 93% 30.11 in 4.0 mi Calm Calm - 0.18 in Rain , Thunderstorm Light Thunderstorms and Rain
11:01 PM 69.8 °F - 68.0 °F 94% 30.13 in 2.5 mi Calm Calm - 0.03 in Rain Heavy Rain
11:10 PM 69.8 °F - 68.0 °F 94% 30.12 in 3.0 mi Calm Calm - 0.05 in Rain , Thunderstorm Rain
11:28 PM 69.8 °F - 68.0 °F 94% 30.12 in 6.0 mi SSE 3.5 mph - 0.05 in Rain Light Rain
11:53 PM 69.1 °F - 68.0 °F 96% 30.11 in 8.0 mi Calm Calm - 0.05 in   Mostly Cloudy